Regional Weather Roundup
Issued by NWS

Home | Current Version | Previous Version | Text Only | Print | Product List | Glossary On
Versions: 1 2 3 4 5 6 7 8 9 10 11 12 13 14 15 16 17 18 19 20 21 22 23 24 25 26 27 28 29 30 31 32 33 34 35 36 37 38 39 40 41 42 43 44 45 46 47 48 49 50
000
ASUS43 KMKX 171700
RWRWI

WISCONSIN REGIONAL WEATHER ROUNDUP
NATIONAL WEATHER SERVICE MILWAUKEE/SULLIVAN WI
1200 PM CDT TUE OCT 17 2017

NOTE: "FAIR" INDICATES FEW OR NO CLOUDS BELOW 12,000 FEET WITH NO
SIGNIFICANT WEATHER AND/OR OBSTRUCTIONS TO VISIBILITY.

WIZ001-002-006>008-014>016-023>028-171800-
NORTHWEST WISCONSIN

CITY           SKY/WX    TMP DP  RH WIND       PRES   REMARKS
SUPERIOR ARPT  SUNNY     62  42  48 SW5       29.97F
ASHLAND        MOSUNNY   68  41  37 SW10      29.98F
HAYWARD        SUNNY     63  41  44 S7        30.01F
SIREN          SUNNY     62  41  47 S5        30.01S
CUMBERLAND     SUNNY     59  43  55 S6        30.02S
RICE LAKE      SUNNY     61  44  53 SE3       30.04S
CHETEK         SUNNY     59  46  61 CALM      30.03F
LADYSMITH      SUNNY     61  44  54 S5        30.05S
EAU CLAIRE     NOT AVBL
MENOMONIE      SUNNY     61  44  53 CALM      30.05R
NEW RICHMOND   SUNNY     61  44  52 S6        30.02F
OSCEOLA        SUNNY     61  44  53 S7        30.04F
$$

WIZ003>005-009-010-017-018-171800-
NORTH CENTRAL WISCONSIN

CITY           SKY/WX    TMP DP  RH WIND       PRES   REMARKS
MANITOWISH WTR SUNNY     61  41  48 SW6       30.02S
ARBOR VITAE    SUNNY     62  44  51 CALM      30.02S
WOODRUFF       SUNNY     62  44  51 CALM      30.02S
RHINELANDER    SUNNY     62  41  46 SW5       30.04S
EAGLE RIVER    SUNNY     59  39  46 W5        30.02S
LAND O LAKES   SUNNY     63  38  40 W7        30.02F
PHILLIPS       SUNNY     59  44  56 SW5       30.02F
TOMAHAWK       SUNNY     61  42  50 CALM      30.04S
MEDFORD        SUNNY     60  43  53 CALM      30.04S
MERRILL        SUNNY     61  43  52 W3        30.05F
$$

WIZ029-030-035-036-043>047-171800-
CENTRAL WISCONSIN

CITY           SKY/WX    TMP DP  RH WIND       PRES   REMARKS
WAUSAU         SUNNY     60  44  55 VRB3      30.04S
MOSINEE        MOSUNNY   61  45  55 SW3       30.07R
MARSHFIELD     SUNNY     62  43  49 SW8       30.05S
STEVENS POINT  SUNNY     59  43  55 SW5       30.06F
WAUPACA        SUNNY     64  44  47 W6        30.06S
WAUTOMA        SUNNY     64  46  52 SW6       30.08S
WISC RAPIDS    SUNNY     62  45  53 SW8       30.07F
CAMP DOUGLAS   NOT AVBL
$$

WIZ011>013-019>022-031-037>040-048>050-171800-
NORTHEAST WISCONSIN

CITY           SKY/WX    TMP DP  RH WIND       PRES   REMARKS
ANTIGO         SUNNY     59  43  55 W5        30.05S
SHAWANO        SUNNY     63  44  50 W5        30.05S
OCONTO         SUNNY     61  43  50 W6        30.04R
STURGEON BAY   SUNNY     61  44  53 MISG      30.03S
GREEN BAY      SUNNY     62  47  57 SW7       30.06S
MANITOWOC      SUNNY     61  45  55 W10       30.07R
APPLETON       SUNNY     61  39  44 SW9       30.06R
CLINTONVILLE   SUNNY     63  43  48 SW6       30.05S
OSHKOSH        SUNNY     62  46  55 SW10      30.07S
$$

WIZ032>034-041-042-053>061-171800-
SOUTHWEST WISCONSIN

CITY           SKY/WX    TMP DP  RH WIND       PRES   REMARKS
LA CROSSE      SUNNY     62  45  53 VRB6      30.08S
SPARTA         SUNNY     61  45  55 W6        30.08S
VIROQUA        SUNNY     60  45  57 S9        30.09F
BOSCOBEL       SUNNY     65  43  44 SW7       30.11S
PRAIRIE DU CHI SUNNY     63  42  45 SW8       30.11S
PLATTEVILLE    SUNNY     63  44  50 W14       30.14S
$$

WIZ056-057-062-063-064-067-068-171800-
SOUTH CENTRAL WISCONSIN

CITY           SKY/WX    TMP DP  RH WIND       PRES   REMARKS
REEDSBURG      SUNNY     60  44  55 W7        30.09F
BARABOO/DELLS  SUNNY     60  43  52 SW10      30.09S
LONE ROCK      SUNNY     64  46  52 SW9       30.11S
MINERAL POINT  SUNNY     64  43  45 SW14      30.12S
MADISON        MOSUNNY   63  44  50 SW8       30.11S
MIDDLETON      SUNNY     64  44  49 SW9       30.12S
WATERTOWN      SUNNY     62  44  50 SW9G16    30.11S
MONROE         SUNNY     63  41  45 SW18      30.13S
JANESVILLE     MOSUNNY   66  43  42 W15G22    30.13S
$$

WIZ051-052-058>065-066-070>072-171800-
SOUTHEAST WISCONSIN

CITY           SKY/WX    TMP DP  RH WIND       PRES   REMARKS
MILWAUKEE      MOSUNNY   67  42  40 SW16G25   30.12S
WAUKESHA       SUNNY     63  43  48 W13       30.13S
MILWAUKEE/TIMM SUNNY     64  39  39 W14       30.11S
RACINE         SUNNY     67  43  41 SW16G24   30.13S
BURLINGTON     SUNNY     67  44  43 SW15G22   30.13R
KENOSHA        SUNNY     68  43  40 W16G25    30.13F
FOND DU LAC    SUNNY     64  43  46 W9        30.09S
SHEBOYGAN      SUNNY     64  47  53 W12       30.07S
WEST BEND      SUNNY     61  41  48 W12G17    30.10S
JUNEAU         SUNNY     60  43  53 SW12      30.12S
$$

LSZ147-162-171800-
LAKE SUPERIOR

STATION/POSITION TIME  TEMP    WIND        PRES    WAVE
                       AIR SEA DIR/SP/G            HT/PER
                 (UTC) (F)     (DEG/KT/KT) (MB)    (FT/S)
W MID LAKE BUOY  1550   53 53              1014.7R   2/ 5
DEVILS ISLAND    1600   54     240/ 12/ 14 1015.1F
SAXON HARBOR     1630   65     210/  6/ 11 1014.9S
$$

LMZ867-665-643>646-171800-
LAKE MICHIGAN

STATION/POSITION TIME  TEMP    WIND        PRES    WAVE
                       AIR SEA DIR/SP/G            HT/PER
                 (UTC) (F)     (DEG/KT/KT) (MB)    (FT/S)
S GREEN BAY BUOY 1630   57 58  220/ 12/ 14 1016.8S
N MID LAKE BUOY  1550   56 59  250/ 14/ 16 1016.7R   5/ 7
NORTHPORT PIER   1640   60     270/  5/ 10 1016.3R
KEWAUNEE LAKESHO 1630   62     270/ 10/ 12 1016.4R
SHEBOYGAN LAKESH 1600   60     260/ 14/ 16 1018.1R
PORT WASHINGTON  1640   64     250/ 10/ 15 1019.6S
MILWAUKEE LAKESH 1630   63     260/ 12/ 16   N/A
S MID LAKE BUOY  1550   59 61  250/ 21/ 25 1020.5S   6/ 6
KENOSHA   LAKESH 1600   63     250/ 15/ 20 1020.3
$$

TC  - TEMPERATURE IN CELSIUS
VSB - VISIBILITY IN STATUTE MILES
WCI - WIND CHILL INDEX
HX  - HEAT INDEX





USA.gov is the U.S. government's official web portal to all federal, state and local government web resources and services.